This demonstration page uses our WeatherBlox Daily Observations layout. Learn more.

Left ArrowRight Arrow

Hourly Observations for May 24, 2020

Temp ( °F °C ) Dew Point ( °F °C ) Humidity (%) Winds ( mph kmh ) Pressure ( in mb ) Visibility ( mi km ) Precip ( " mm )
12:52 am 00:52 Cloudy 73 22.8 61 16.1 66 66 SSE 13 20 29.75 1008 10 16 0.00 0.00
1:52 am 01:52 Mostly Cloudy 71 21.7 61 16.1 71 71 SE 15 24 29.73 1007 10 16 0.00 0.00
2:52 am 02:52 Mostly Cloudy 70 21.1 62 16.7 76 76 SE 10 17 29.72 1007 10 16 0.00 0.00
3:52 am 03:52 Mostly Cloudy 70 21.1 64 17.8 82 82 SSE 15 24 29.70 1006 10 16 0.00 0.00
4:52 am 04:52 Cloudy 70 21.1 64 17.8 82 82 SSE 10 17 29.72 1007 10 16 0.00 0.00
5:40 am 05:40 Cloudy with Nearby Thunderstorms 67 19.4 59 15 76 76 N 16 26 29.80 1009 10 16 0.00 0.00
5:43 am 05:43 Windy with Storms Likely 65 18.3 59 15 81 81 N 24 39 29.80 1009 10 16 0.00 0.00
5:52 am 05:52 Cloudy with Thunderstorms 63 17.2 60 15.6 90 90 N 14 22 29.80 1009 6 10 0.00 0.00
5:59 am 05:59 Cloudy with Strong Thunderstorms 62 16.7 60 15.6 93 93 N 15 24 29.81 1009 3 5 0.03 0.76
6:11 am 06:11 Cloudy with Strong Thunderstorms 61 16.1 60 15.6 97 97 N 17 28 29.81 1009 2 3 0.15 3.81
6:29 am 06:29 Cloudy with Thunderstorms 61 16.1 60 15.6 97 97 N 14 22 29.82 1010 3 5 0.57 14.48
6:45 am 06:45 Cloudy with Thunderstorms 62 16.7 61 16.1 96 96 NNE 17 28 29.79 1009 6 10 0.62 15.75
6:52 am 06:52 Cloudy with Thunderstorms 62 16.7 61 16.1 96 96 ENE 14 22 29.77 1008 9 14 0.62 15.75
6:59 am 06:59 Cloudy with Thunderstorms 63 17.2 61 16.1 93 93 ENE 12 19 29.77 1008 10 16 0.01 0.25
7:21 am 07:21 Cloudy with Nearby Thunderstorms 64 17.8 61 16.1 90 90 E 3 6 29.79 1009 10 16 0.01 0.25
7:31 am 07:31 Cloudy with Light Rain 63 17.2 61 16.1 93 93 VRB 3 6 29.79 1009 10 16 0.01 0.25
7:52 am 07:52 Cloudy 63 17.2 61 16.1 93 93 ESE 10 17 29.80 1009 10 16 0.01 0.25
8:52 am 08:52 Mostly Cloudy 64 17.8 62 16.7 93 93 ESE 15 24 29.80 1009 10 16 0.00 0.00
9:52 am 09:52 Mostly Cloudy 70 21.1 64 17.8 82 82 SE 16 26 29.80 1009 10 16 0.00 0.00
10:52 am 10:52 Mostly Cloudy 74 23.3 66 18.9 76 76 SSE 16 26 29.79 1009 10 16 0.00 0.00
11:52 am 11:52 Mostly Cloudy 77 25 67 19.4 71 71 SSE 16 26 29.79 1009 10 16 0.00 0.00
12:52 pm 12:52 Mostly Cloudy 80 26.7 68 20 67 67 S 13 20 29.78 1008 10 16 0.00 0.00
1:52 pm 13:52 Mostly Cloudy 80 26.7 66 18.9 62 62 S 10 17 29.77 1008 10 16 0.00 0.00
2:52 pm 14:52 Mostly Cloudy 80 26.7 66 18.9 62 62 SE 6 9 29.75 1007 10 16 0.00 0.00
3:52 pm 15:52 Mostly Cloudy 79 26.1 67 19.4 67 67 Calm 29.74 1007 10 16 0.00 0.00
4:52 pm 16:52 Cloudy with Light Rain 70 21.1 66 18.9 87 87 NNW 8 13 29.80 1009 10 16 0.00 0.00
5:12 pm 17:12 Cloudy with Thunderstorms 69 20.6 66 18.9 90 90 NNW 7 11 29.79 1009 7 11 0.01 0.25
5:52 pm 17:52 Cloudy with Thunderstorms 68 20 65 18.3 90 90 S 10 17 29.84 1011 4 6 0.03 0.76
5:59 pm 17:59 Cloudy with Thunderstorms 68 20 65 18.3 90 90 SSE 13 20 29.83 1010 6 10 0.00 0.00
6:14 pm 18:14 Cloudy with Thunderstorms 67 19.4 65 18.3 93 93 SE 15 24 29.83 1010 3 5 0.05 1.27
6:45 pm 18:45 Cloudy with Light Rain 66 18.9 64 17.8 93 93 S 9 15 29.79 1009 7 11 0.07 1.78
6:52 pm 18:52 Cloudy 66 18.9 64 17.8 93 93 W 12 19 29.81 1010 10 16 0.07 1.78
7:52 pm 19:52 Cloudy 67 19.4 64 17.8 91 91 NNE 3 6 29.80 1009 10 16 0.00 0.00
8:52 pm 20:52 Mostly Cloudy 65 18.3 64 17.8 97 97 NNE 5 7 29.80 1009 10 16 0.00 0.00
9:52 pm 21:52 Cloudy 64 17.8 63 17.2 96 96 NW 7 11 29.81 1010 10 16 0.00 0.00
10:52 pm 22:52 Cloudy 63 17.2 62 16.7 97 97 E 3 6 29.80 1009 10 16 0.00 0.00
11:52 pm 23:52 Cloudy 65 18.3 63 17.2 93 93 NE 7 11 29.81 1010 10 16 0.00 0.00

Powered by AerisWeather